�N����,����,�~����,�C��,���x,�C��,����,���ϕ���,�ő�u�ԕ���,�ő厞����,���˗�,�I�_���x,�n�����x,�ő啗���N��,DTYPE
"23/05/10","00:10",0.0,12.2,72.0,1009.7,329.4,2.3,3.4,334.5,0.00,7.3,17.0,"00:01:44",1
"23/05/10","00:20",0.0,12.0,72.4,1010.0,331.6,3.2,4.5,334.5,0.00,7.2,16.9,"00:14:48",1
"23/05/10","00:30",0.0,11.8,72.8,1010.0,332.9,3.7,4.9,334.6,0.00,7.1,16.7,"00:26:46",1
"23/05/10","00:40",0.0,11.8,73.1,1010.4,332.7,3.9,5.0,342.1,0.00,7.2,16.8,"00:31:26",1
"23/05/10","00:50",0.0,11.5,73.8,1010.0,331.6,3.4,5.1,335.3,0.00,7.0,16.7,"00:42:20",1
"23/05/10","01:00",0.0,11.3,74.5,1010.0,334.0,3.5,4.7,338.6,0.00,7.0,16.9,"00:57:24",1
"23/05/10","01:10",0.0,11.2,75.2,1010.2,336.5,3.1,4.9,346.1,0.00,7.0,16.7,"01:00:44",1
"23/05/10","01:20",0.0,10.9,75.7,1009.7,324.3,3.0,4.1,344.8,0.00,6.8,16.5,"01:18:36",1
"23/05/10","01:30",0.0,11.0,76.0,1009.7,321.4,3.5,4.9,317.4,0.00,7.0,16.8,"01:29:46",1
"23/05/10","01:40",0.0,11.0,76.2,1010.0,327.2,3.5,4.7,343.2,0.00,7.0,16.5,"01:35:40",1
"23/05/10","01:50",0.0,10.9,76.5,1010.0,324.9,3.4,4.4,329.4,0.00,7.0,16.6,"01:49:32",1
"23/05/10","02:00",0.0,11.0,76.7,1010.2,314.1,3.7,4.9,327.0,0.00,7.1,16.4,"01:57:02",1
"23/05/10","02:10",0.0,11.0,77.0,1010.0,318.4,3.2,4.4,332.9,0.00,7.2,16.4,"02:09:08",1
"23/05/10","02:20",0.0,10.6,77.0,1010.0,331.3,3.0,4.0,345.5,0.00,6.8,16.2,"02:15:52",1
"23/05/10","02:30",0.0,10.4,77.2,1010.2,333.1,3.0,4.2,341.2,0.00,6.6,16.4,"02:25:24",1
"23/05/10","02:40",0.0,10.5,77.6,1009.5,329.0,3.0,4.1,343.0,0.00,6.8,16.3,"02:31:52",1
"23/05/10","02:50",0.0,10.6,78.0,1010.0,321.8,3.0,4.4,320.6,0.00,7.0,16.4,"02:47:38",1
"23/05/10","03:00",0.0,10.3,78.6,1010.0,328.9,2.7,4.1,338.1,0.00,6.8,16.2,"02:58:24",1
"23/05/10","03:10",0.0,10.2,79.1,1009.7,320.8,3.0,4.8,320.6,0.00,6.8,16.2,"03:09:20",1
"23/05/10","03:20",0.0,10.2,79.4,1009.7,321.5,2.8,5.8,332.1,0.00,6.8,16.2,"03:12:08",1
"23/05/10","03:30",0.0,10.1,79.9,1009.5,330.8,3.4,5.1,341.9,0.00,6.8,16.2,"03:22:16",1
"23/05/10","03:40",0.0,10.1,80.3,1009.7,308.7,3.0,4.4,315.3,0.00,6.9,16.2,"03:31:36",1
"23/05/10","03:50",0.0,9.9,80.8,1010.0,320.1,3.0,4.4,328.3,0.00,6.8,16.0,"03:43:12",1
"23/05/10","04:00",0.0,9.9,81.5,1009.7,308.6,2.7,3.5,316.6,0.00,6.9,16.0,"03:55:44",1
"23/05/10","04:10",0.0,9.6,82.1,1009.7,323.9,2.0,2.7,324.7,0.00,6.7,16.1,"04:00:32",1
"23/05/10","04:20",0.0,9.0,82.8,1010.0,314.0,1.8,2.7,324.9,0.00,6.3,16.1,"04:13:12",1
"23/05/10","04:30",0.0,8.9,83.8,1010.0,288.2,1.8,2.8,273.6,0.00,6.4,15.9,"04:27:04",1
"23/05/10","04:40",0.0,9.1,84.7,1009.7,317.0,2.6,3.3,311.1,0.00,6.7,15.8,"04:33:44",1
"23/05/10","04:50",0.0,8.8,85.5,1009.7,320.8,2.3,2.9,310.0,0.00,6.5,15.8,"04:42:40",1
"23/05/10","05:00",0.0,8.8,86.4,1010.2,313.4,2.6,3.2,311.8,0.00,6.7,15.8,"04:50:48",1
"23/05/10","05:10",0.0,8.6,86.8,1010.0,316.8,2.3,2.9,320.2,0.00,6.6,15.8,"05:00:32",1
"23/05/10","05:20",0.0,8.2,87.3,1010.0,294.7,2.0,2.6,312.3,0.00,6.3,15.7,"05:19:36",1
"23/05/10","05:30",0.0,8.4,88.0,1010.2,311.6,2.8,3.4,290.9,0.00,6.6,15.7,"05:21:28",1
"23/05/10","05:40",0.0,8.6,88.5,1010.0,294.5,2.5,4.1,319.5,0.00,6.8,15.6,"05:37:20",1
"23/05/10","05:50",0.0,8.6,88.9,1010.2,288.6,2.2,3.3,317.3,0.00,6.9,15.6,"05:40:02",1
"23/05/10","06:00",0.0,8.6,89.2,1010.0,298.0,2.3,3.3,314.1,0.00,7.0,15.5,"05:50:02",1
"23/05/10","06:10",0.2,8.8,89.4,1010.2,308.6,2.6,3.4,311.1,0.00,7.2,15.4,"06:08:16",1
"23/05/10","06:20",0.0,8.9,89.6,1010.2,315.1,2.0,2.6,318.4,0.00,7.3,15.3,"06:13:52",1
"23/05/10","06:30",0.0,8.8,89.8,1010.2,324.4,2.3,2.9,331.9,0.00,7.3,15.4,"06:22:24",1
"23/05/10","06:40",0.0,9.1,90.2,1010.2,307.5,2.2,3.1,323.3,0.01,7.6,15.3,"06:34:00",1
"23/05/10","06:50",0.0,9.8,90.3,1010.2,307.6,2.3,3.3,312.0,0.03,8.3,15.0,"06:41:20",1
"23/05/10","07:00",0.0,10.6,89.8,1010.4,307.6,1.5,2.9,314.8,0.04,9.0,15.4,"06:58:48",1
"23/05/10","07:10",0.0,11.0,89.1,1010.4,308.0,2.0,2.8,327.5,0.06,9.3,15.4,"07:00:40",1
"23/05/10","07:20",0.0,12.2,87.9,1010.9,327.5,1.1,1.8,332.3,0.08,10.3,15.3,"07:10:08",1
"23/05/10","07:30",0.0,13.1,86.0,1010.9,333.8,1.0,1.6,343.3,0.10,10.9,15.1,"07:28:32",1
"23/05/10","07:40",0.0,14.2,82.7,1011.2,335.6,1.0,1.7,329.1,0.13,11.3,15.2,"07:31:30",1
"23/05/10","07:50",0.0,15.1,78.2,1010.9,344.5,0.6,1.4,336.5,0.15,11.4,15.1,"07:47:44",1
"23/05/10","08:00",0.0,15.9,73.4,1011.6,337.7,0.6,1.4,346.7,0.18,11.2,15.0,"07:51:04",1
"23/05/10","08:10",0.0,16.8,70.9,1011.6,325.1,1.0,1.8,337.5,0.20,11.5,15.2,"08:02:24",1
"23/05/10","08:20",0.0,17.0,69.1,1011.6,294.9,0.7,2.0,314.5,0.23,11.3,15.2,"08:12:24",1
"23/05/10","08:30",0.0,17.4,67.5,1011.4,24.5,0.3,1.0,133.1,0.26,11.4,15.2,"08:29:52",1
"23/05/10","08:40",0.0,17.8,65.8,1011.2,100.6,0.3,1.3,128.4,0.28,11.4,15.1,"08:35:36",1
"23/05/10","08:50",0.0,17.7,64.4,1011.2,227.7,0.7,1.6,188.1,0.31,10.9,15.2,"08:48:48",1
"23/05/10","09:00",0.0,18.1,65.9,1011.2,248.1,0.8,1.9,227.9,0.33,11.7,15.1,"08:52:24",1
"23/05/10","09:10",0.0,18.5,66.9,1010.9,274.4,0.7,2.1,304.6,0.34,12.3,15.1,"09:06:48",1
"23/05/10","09:20",0.0,18.5,65.7,1010.7,245.7,0.7,2.4,211.8,0.34,12.0,15.2,"09:14:56",1
"23/05/10","09:30",0.0,19.5,64.9,1010.7,321.4,0.6,1.7,323.3,0.41,12.8,15.4,"09:24:16",1
"23/05/10","09:40",0.0,19.7,62.6,1010.4,20.3,1.2,3.1,104.6,0.43,12.4,15.4,"09:31:04",1
"23/05/10","09:50",0.0,20.5,63.2,1010.0,185.9,0.6,1.6,102.9,0.45,13.3,15.3,"09:41:52",1
"23/05/10","10:00",0.0,20.4,61.6,1010.2,180.2,1.1,3.1,241.7,0.46,12.8,15.2,"09:57:04",1
"23/05/10","10:10",0.0,20.1,60.8,1010.0,123.1,1.5,2.8,128.8,0.49,12.3,15.3,"10:08:40",1
"23/05/10","10:20",0.0,20.4,59.9,1010.0,118.5,1.2,3.2,117.3,0.51,12.4,15.6,"10:11:52",1
"23/05/10","10:30",0.0,21.4,58.8,1009.7,165.8,1.1,2.5,172.8,0.53,13.1,15.4,"10:24:24",1
"23/05/10","10:40",0.0,21.4,58.3,1010.0,168.6,1.3,2.9,183.6,0.51,12.9,15.6,"10:34:00",1
"23/05/10","10:50",0.0,21.7,54.5,1009.7,121.7,1.2,2.8,118.2,0.54,12.2,15.5,"10:42:48",1
"23/05/10","11:00",0.0,22.6,52.2,1009.7,322.5,1.1,2.6,352.0,0.56,12.4,15.8,"10:56:48",1
"23/05/10","11:10",0.0,22.5,49.8,1009.5,334.8,1.6,3.4,349.2,0.54,11.5,15.8,"11:03:28",1
"23/05/10","11:20",0.0,23.2,50.5,1009.5,326.7,1.3,3.2,341.6,0.59,12.4,15.9,"11:10:48",1
"23/05/10","11:30",0.0,24.1,49.2,1009.0,212.4,1.0,2.1,240.4,0.61,12.8,16.2,"11:25:12",1
"23/05/10","11:40",0.0,23.6,46.7,1009.0,154.6,2.1,4.2,123.9,0.60,11.6,16.2,"11:30:32",1
"23/05/10","11:50",0.0,24.1,47.0,1009.0,168.7,1.5,3.2,210.4,0.61,12.1,16.1,"11:44:32",1
"23/05/10","12:00",0.0,24.7,43.2,1008.3,195.1,1.0,2.7,241.8,0.61,11.4,16.4,"11:59:28",1
"23/05/10","12:10",0.0,24.5,41.0,1008.6,243.1,1.5,3.5,223.2,0.61,10.4,16.3,"12:05:44",1
"23/05/10","12:20",0.0,24.6,40.7,1008.6,206.9,1.5,5.8,224.8,0.63,10.4,16.5,"12:12:24",1
"23/05/10","12:30",0.0,25.4,38.4,1007.8,174.7,1.2,2.7,211.7,0.62,10.3,16.3,"12:20:56",1
"23/05/10","12:40",0.0,25.2,39.1,1008.1,175.1,2.2,4.2,157.3,0.62,10.4,16.6,"12:38:24",1
"23/05/10","12:50",0.0,25.1,39.8,1007.6,220.0,2.5,5.1,214.3,0.63,10.5,16.7,"12:41:28",1
"23/05/10","13:00",0.0,25.7,37.8,1007.6,178.3,1.7,3.6,188.1,0.61,10.3,16.6,"12:50:32",1
"23/05/10","13:10",0.0,25.3,29.1,1007.6,288.8,3.0,6.7,299.5,0.63,6.1,16.6,"13:07:32",1
"23/05/10","13:20",0.0,25.8,28.7,1007.6,320.3,2.6,6.2,337.0,0.62,6.3,16.7,"13:14:32",1
"23/05/10","13:30",0.0,25.5,24.1,1007.4,325.8,3.9,6.2,319.1,0.62,3.6,16.9,"13:29:20",1
"23/05/10","13:40",0.0,25.6,25.1,1007.4,343.7,3.5,6.4,321.1,0.60,4.2,17.2,"13:39:12",1
"23/05/10","13:50",0.0,25.7,26.4,1007.1,337.0,3.6,6.0,318.6,0.57,5.0,17.2,"13:41:52",1
"23/05/10","14:00",0.0,25.8,23.9,1007.4,340.9,3.2,5.4,321.0,0.57,3.7,17.2,"13:56:32",1
"23/05/10","14:10",0.0,26.1,22.8,1006.9,346.4,2.7,6.4,1.5,0.57,3.3,17.2,"14:02:16",1
"23/05/10","14:20",0.0,26.3,24.1,1006.7,350.1,2.5,6.3,341.5,0.53,4.2,17.4,"14:13:04",1
"23/05/10","14:30",0.0,26.4,22.4,1006.9,346.1,2.3,4.9,333.0,0.51,3.3,17.5,"14:21:36",1
"23/05/10","14:40",0.0,26.6,22.7,1006.7,1.6,2.5,5.0,355.4,0.54,3.6,17.7,"14:35:12",1
"23/05/10","14:50",0.0,27.3,23.5,1006.7,13.0,1.5,4.3,359.6,0.52,4.7,17.6,"14:40:24",1
"23/05/10","15:00",0.0,26.2,22.3,1006.4,332.6,3.0,6.5,324.8,0.46,3.1,17.6,"14:59:36",1
"23/05/10","15:10",0.0,26.2,20.9,1006.2,359.6,3.0,5.9,8.9,0.45,2.1,17.7,"15:07:28",1
"23/05/10","15:20",0.0,26.0,22.9,1006.7,336.3,3.2,7.1,330.6,0.42,3.3,17.8,"15:12:16",1
"23/05/10","15:30",0.0,25.3,25.1,1006.7,351.5,3.9,7.2,344.8,0.32,4.0,17.7,"15:23:12",1
"23/05/10","15:40",0.0,25.4,24.2,1006.9,346.7,3.4,5.9,333.6,0.42,3.5,18.0,"15:31:04",1
"23/05/10","15:50",0.0,25.9,23.3,1006.7,338.2,3.2,6.7,327.9,0.43,3.4,17.9,"15:42:16",1
"23/05/10","16:00",0.0,26.2,22.3,1006.7,354.4,2.5,5.2,334.9,0.41,3.1,18.0,"15:51:36",1
"23/05/10","16:10",0.0,26.4,22.8,1006.4,344.4,2.5,5.4,341.5,0.39,3.5,17.8,"16:02:56",1
"23/05/10","16:20",0.0,25.8,21.7,1006.4,348.9,3.1,6.4,352.4,0.33,2.3,18.2,"16:18:08",1
"23/05/10","16:30",0.0,25.2,21.3,1006.7,330.2,4.6,8.7,343.5,0.29,1.6,18.0,"16:28:08",1
"23/05/10","16:40",0.0,25.4,23.6,1006.7,326.0,3.1,7.1,336.1,0.26,3.2,18.2,"16:32:00",1
"23/05/10","16:50",0.0,24.8,21.7,1006.7,322.0,3.4,5.5,331.6,0.17,1.5,18.2,"16:44:00",1
"23/05/10","17:00",0.0,25.0,26.0,1006.9,323.5,2.2,4.4,351.2,0.19,4.2,18.3,"16:54:24",1
"23/05/10","17:10",0.0,24.9,21.9,1006.9,323.6,3.9,7.1,343.3,0.23,1.7,18.2,"17:05:12",1
"23/05/10","17:20",0.0,24.9,26.8,1007.1,336.4,3.1,6.6,313.5,0.17,4.6,18.2,"17:11:12",1
"23/05/10","17:30",0.0,24.8,24.1,1007.1,351.4,2.5,5.2,337.8,0.16,3.0,18.5,"17:24:00",1
"23/05/10","17:40",0.0,24.6,25.0,1007.4,346.1,3.0,5.4,346.6,0.15,3.3,18.2,"17:32:08",1
"23/05/10","17:50",0.0,23.8,25.6,1007.6,340.1,3.4,6.4,344.1,0.10,3.0,18.4,"17:47:28",1
"23/05/10","18:00",0.0,23.4,26.2,1007.6,344.5,2.8,6.3,348.1,0.08,3.0,18.5,"17:52:08",1
"23/05/10","18:10",0.0,23.1,28.0,1007.8,348.8,2.1,4.0,354.0,0.03,3.7,18.5,"18:00:32",1
"23/05/10","18:20",0.0,23.0,28.5,1007.6,353.1,2.2,4.2,354.4,0.03,3.8,18.3,"18:13:04",1
"23/05/10","18:30",0.0,22.4,29.5,1007.8,342.8,2.6,5.5,343.6,0.02,3.8,18.5,"18:29:52",1
"23/05/10","18:40",0.0,22.0,34.1,1008.1,346.3,2.2,4.2,332.3,0.01,5.5,18.2,"18:36:24",1
"23/05/10","18:50",0.0,21.2,34.8,1007.8,347.4,2.1,3.5,331.8,0.00,5.1,18.3,"18:40:32",1
"23/05/10","19:00",0.0,20.3,34.7,1008.1,343.9,2.3,4.1,348.7,0.00,4.3,18.4,"18:56:16",1
"23/05/10","19:10",0.0,19.7,38.3,1008.6,338.1,2.6,3.9,307.2,0.00,5.1,18.4,"19:09:12",1
"23/05/10","19:20",0.0,19.2,40.3,1008.8,336.6,2.7,4.2,328.8,0.00,5.4,18.2,"19:14:16",1
"23/05/10","19:30",0.0,18.5,41.1,1008.8,335.1,2.5,4.0,350.7,0.00,5.1,18.0,"19:22:32",1
"23/05/10","19:40",0.0,18.4,38.5,1009.0,337.0,3.2,5.2,346.1,0.00,4.1,18.2,"19:37:12",1
"23/05/10","19:50",0.0,18.3,37.8,1009.3,335.2,3.7,7.4,344.7,0.00,3.7,18.1,"19:45:52",1
"23/05/10","20:00",0.0,18.2,38.1,1009.5,335.5,4.5,6.8,331.9,0.00,3.7,17.9,"19:51:36",1
"23/05/10","20:10",0.0,17.8,39.3,1009.5,334.7,3.9,6.5,324.4,0.00,3.8,18.2,"20:02:56",1
"23/05/10","20:20",0.0,17.5,39.4,1009.7,336.8,3.6,6.2,352.2,0.00,3.6,18.0,"20:19:22",1
"23/05/10","20:30",0.0,17.3,39.6,1010.2,338.3,3.4,6.5,349.0,0.00,3.5,17.9,"20:26:06",1
"23/05/10","20:40",0.0,17.5,39.0,1010.2,331.1,4.2,8.0,324.3,0.00,3.4,17.8,"20:36:22",1
"23/05/10","20:50",0.0,17.5,39.1,1010.2,324.9,5.0,8.3,330.7,0.00,3.5,18.1,"20:49:00",1
"23/05/10","21:00",0.0,17.3,40.7,1010.4,329.5,4.2,8.3,321.0,0.00,3.9,17.8,"20:52:08",1
"23/05/10","21:10",0.0,16.8,42.4,1010.7,313.9,1.3,6.2,331.2,0.00,4.0,17.8,"21:02:00",1
"23/05/10","21:20",0.0,16.5,43.9,1010.9,323.5,1.1,2.7,241.0,0.00,4.2,17.7,"21:15:52",1
"23/05/10","21:30",0.0,16.6,43.3,1010.9,328.5,2.2,4.7,319.1,0.00,4.1,17.8,"21:22:54",1
"23/05/10","21:40",0.0,16.3,45.7,1011.2,279.2,1.6,2.9,248.4,0.00,4.6,17.7,"21:33:52",1
"23/05/10","21:50",0.0,15.7,47.2,1010.9,293.5,1.2,1.7,317.5,0.00,4.5,17.6,"21:49:36",1
"23/05/10","22:00",0.0,15.3,48.9,1010.9,290.9,1.5,2.5,339.1,0.00,4.7,17.5,"21:57:44",1
"23/05/10","22:10",0.0,14.9,50.2,1011.2,304.8,2.1,3.3,316.3,0.00,4.7,17.4,"22:04:00",1
"23/05/10","22:20",0.0,14.6,52.2,1011.4,283.5,1.6,2.9,320.3,0.00,5.0,17.2,"22:19:52",1
"23/05/10","22:30",0.0,14.5,52.8,1011.4,313.2,1.5,2.6,323.4,0.00,5.0,17.6,"22:27:36",1
"23/05/10","22:40",0.0,14.4,54.0,1011.4,323.0,1.1,1.7,317.8,0.00,5.3,17.3,"22:30:48",1
"23/05/10","22:50",0.0,14.3,56.5,1011.6,320.6,1.0,2.6,311.7,0.00,5.8,17.2,"22:47:46",1
"23/05/10","23:00",0.0,13.5,59.0,1011.6,326.0,1.3,2.5,318.2,0.00,5.7,17.2,"22:55:50",1
"23/05/10","23:10",0.0,13.5,60.7,1012.1,325.4,1.5,2.1,323.2,0.00,6.1,17.2,"23:08:08",1
"23/05/10","23:20",0.0,13.0,63.9,1011.6,315.5,2.1,2.7,320.6,0.00,6.4,17.2,"23:19:24",1
"23/05/10","23:30",0.0,12.3,65.4,1011.6,317.2,1.8,2.4,313.8,0.00,6.0,17.0,"23:21:26",1
"23/05/10","23:40",0.0,12.0,66.5,1011.9,311.5,1.6,2.1,317.1,0.00,6.0,17.1,"23:30:46",1
"23/05/10","23:50",0.0,13.0,64.0,1011.9,341.4,1.7,2.9,325.9,0.00,6.4,16.9,"23:49:44",1
"23/05/10","24:00",0.0,12.3,66.5,1011.9,333.4,2.5,3.3,329.3,0.00,6.3,16.8,"23:51:18",1
